Regional Weather Roundup
Issued by NWS

Home | Current Version | Previous Version | Graphics & Text | Print | Product List | Glossary On
Versions: 1 2 3 4 5 6 7 8 9 10 11 12 13 14 15 16 17 18 19 20 21 22 23 24 25 26 27 28 29 30 31 32 33 34 35 36 37 38 39 40 41 42 43 44 45 46 47 48 49 50
000
ASUS43 KTOP 260408
RWRKS

WEATHER ROUNDUP FOR KANSAS
NATIONAL WEATHER SERVICE GOODLAND KS
1100 PM CDT SUN SEP 25 2016

NOTE:  "FAIR" INDICATES FEW OR NO CLOUDS BELOW 12,000 FEET WITH NO
SIGNIFICANT WEATHER AND/OR OBSTRUCTIONS TO VISIBILITY.

KSZ001>006-013>018-027>032-041>047-260500-
NORTHWEST KANSAS

CITY           SKY/WX    TMP DP  RH WIND       PRES   REMARKS
GOODLAND       CLEAR     47  35  63 CALM      30.38S
HAYS           CLEAR     52  36  54 NW5       30.31R
HILL CITY      CLEAR     48  37  65 N10       30.34R
RUSSELL        CLEAR     52  41  66 NW7       30.29R
$$

KSZ061>065-074>080-084>089-260500-
SOUTHWEST KANSAS

CITY           SKY/WX    TMP DP  RH WIND       PRES   REMARKS
DODGE CITY     CLEAR     49  40  71 N5        30.33R
ELKHART          N/A     59  31  34 N3          N/A
GARDEN CITY    CLEAR     51  34  52 N10       30.35R
GREAT BEND     CLEAR     54  39  58 N5        30.30R
LIBERAL        CLEAR     52  30  43 N6        30.35S
PRATT          CLEAR     50  42  73 N7        30.30R
$$

KSZ066>073-081>083-090>101-260500-
SOUTHEAST KANSAS

CITY           SKY/WX    TMP DP  RH WIND       PRES   REMARKS
CHANUTE        CLOUDY    62  58  86 N3        30.20S
COFFEYVILLE    CLOUDY    62  60  93 N3        30.21S
HUTCHINSON     CLEAR     58  46  64 N7        30.27R
MEDICINE LODGE   N/A     56  51  84 N5          N/A
NEWTON         CLEAR    N/A N/A N/A N8        30.26R
PARSONS        PTCLDY    62  60  93 CALM      30.22R
WICHITA INTL   CLOUDY    60  55  83 NW7       30.25R
WICHITA JABRA  PTCLDY    60  53  77 N8        30.25R
WICHITA MCCONL CLOUDY    61  55  80 N7        30.25R HAZE
WINFIELD       CLOUDY    60  58  92 N3        30.25R
$$

KSZ007>012-019>026-033>040-048>060-102>105-260500-
NORTHEAST KANSAS

CITY           SKY/WX    TMP DP  RH WIND       PRES   REMARKS
CONCORDIA      CLEAR     56  40  55 NW8       30.27R
EMPORIA        PTCLDY    60  55  83 NW6       30.23R
LAWRENCE       MOCLDY    59  58  96 W3        30.21R
MANHATTAN      CLEAR     59  47  64 VRB3      30.25R
MARYSVILLE     CLEAR     52  43  71 NW3       30.25R
OLATHE IND     CLOUDY    61  58  90 W5        30.21S
OLATHE EXE     CLOUDY    61  56  83 CALM      30.20S
SALINA         CLEAR     57  47  69 NW6       30.27R
TOPEKA BILLARD PTCLDY    60  53  77 NW7       30.21S HAZE
TOPEKA FORBES  PTCLDY    61  53  75 N8        30.22R HAZE
$$




USA.gov is the U.S. government's official web portal to all federal, state and local government web resources and services.